www.pogodaiklimat.ru

Погода и климат >> Архив погоды >> Швейцария >> Мозен


ПОГОДА в Мозене

  • Прогноз погоды в Мозене
  • Монитор погоды в Мозене

АРХИВ ПОГОДЫ в Мозене

Время (UTC), дата Ветер
(напр.,м/с)
 
Видим.   Явления Облачность Т
(С)
Тd
(С)
f
(%)
Тe
(С)
Тes
(С)
Комфортность P
(гПа)
Po
(гПа)
Тmin
(С)
Tmax
(С)
R
(мм)
R24
(мм)
S
(см)
01 13.07 С 2
{8}
н/о н/о +15.5 +12.6 83 +15 +15 1016.5 963.8
02 13.07 Ю 2
{4}
н/о н/о +14.5 +13.6 94 +14 +14 1016.3 963.5
03 13.07 ЮВ 1
{8}
н/о н/о +14.7 +13.4 92 +15 +15 1016.9 964.1
04 13.07 СЗ 1
{3}
н/о н/о +15.1 +12.7 86 +16 +16 1017.6 964.8
05 13.07 С 2
{3}
н/о н/о +15.2 +12.7 85 +15 +15 1017.7 964.9
06 13.07 С 1
{8}
н/о н/о +17.0 +11.6 70 +18 +18 1017.7 965.2 +14.5
07 13.07 С 2
{3}
н/о н/о +17.7 +11.2 66 +18 +18 1017.8 965.5
08 13.07 С 2
{4}
н/о н/о +18.4 +10.8 61 +19 +19 1017.9 965.7
09 13.07 С 3
{5}
н/о н/о +19.1 +9.5 54 +20 +20 1017.8 965.7
10 13.07 С 3
{6}
н/о н/о +20.0 +10.7 55 +22 +22 комфорт 1017.7 965.8
11 13.07 С 3
{6}
н/о н/о +21.2 +9.7 48 +23 +23 комфорт 1017.0 965.3
12 13.07 С 2
{6}
н/о н/о +20.8 +9.1 47 +23 +23 комфорт 1017.0 965.3
13 13.07 С 4
{7}
н/о н/о +21.5 +9.4 46 +23 +23 комфорт 1016.6 965.0
14 13.07 С 3
{5}
н/о н/о +21.6 +9.7 47 +23 +23 комфорт 1016.5 964.9
15 13.07 С 3
{7}
н/о н/о +22.4 +9.5 44 +24 +24 комфорт 1016.1 964.7
16 13.07 С 3
{6}
н/о н/о +22.5 +9.2 43 +24 +24 комфорт 1015.9 964.5
17 13.07 С 3
{6}
н/о н/о +21.6 +9.9 47 +23 +23 комфорт 1015.9 964.4
18 13.07 С 3
{7}
н/о н/о +21.1 +9.6 48 +22 +22 комфорт 1016.2 964.6 +22.5
19 13.07 СЗ 1
{6}
н/о н/о +19.7 +10.0 53 +22 +22 комфорт 1016.7 964.8
20 13.07 С 1
{4}
н/о н/о +18.6 +10.6 60 +20 +20 1017.4 965.3
21 13.07 Ю 2
{6}
н/о н/о +15.9 +12.0 78 +16 +16 1018.2 965.5
22 13.07 В 1
{2}
н/о н/о +14.9 +11.9 82 +16 +16 1018.3 965.4
23 13.07 С 1
{2}
н/о н/о +14.2 +11.6 84 +15 +15 1018.1 965.1
00 14.07 СЗ 2
{6}
н/о н/о +16.5 +11.5 72 +17 +17 1017.2 964.7
01 14.07 С 2
{4}
н/о н/о +14.7 +10.8 77 +15 +15 1017.0 964.2
02 14.07 СЗ 3
{5}
н/о н/о +15.7 +12.0 79 +15 +15 1016.4 963.8
03 14.07 СЗ 2
{5}
н/о н/о +14.1 +10.9 81 +14 +14 1016.4 963.5
04 14.07 С 2
{2}
н/о н/о +12.1 +9.9 86 +11 +11 1016.7 963.4
05 14.07 Ю 2
{2}
н/о н/о +11.7 +10.5 92 +11 +11 1016.7 963.3
06 14.07 С 2
{5}
н/о н/о +15.7 +11.6 77 +16 +16 1015.6 963.0 +11.1
07 14.07 СЗ 3
{4}
н/о н/о +16.9 +11.8 72 +17 +17 1015.5 963.1
08 14.07 СЗ 3
{6}
н/о н/о +18.6 +12.4 67 +20 +20 1015.0 963.0
09 14.07 СВ 3
{7}
н/о н/о +20.7 +11.7 56 +23 +23 комфорт 1014.3 962.7
10 14.07 С 4
{8}
н/о н/о +21.4 +11.7 54 +23 +23 комфорт 1013.9 962.4
11 14.07
{8}
н/о н/о +21.7 +10.9 50 1013.5 962.1
12 14.07 С 4
{8}
н/о н/о +22.5 +10.4 46 +24 +24 комфорт 1012.7 961.5
13 14.07 СВ 3
{8}
н/о н/о +22.5 +9.8 44 +24 +24 комфорт 1011.9 960.7
14 14.07 С 2
{7}
н/о н/о +24.0 +9.6 40 +25 +25 комфорт 1011.2 960.3
15 14.07 С 3
{8}
н/о н/о +24.4 +9.7 39 +25 +25 комфорт 1010.9 960.1
16 14.07 С 6
{11}
н/о н/о +21.9 +11.1 50 +24 +24 комфорт 1011.4 960.2
17 14.07 С 5
{12}
н/о н/о +19.2 +11.3 60 +20 +20 1012.7 960.9
18 14.07 С 5
{12}
н/о н/о +18.3 +11.1 63 +18 +18 1013.5 961.5 +24.6
19 14.07 С 5
{12}
н/о н/о +17.5 +10.3 63 +17 +17 1014.1 961.9
20 14.07 С 3
{10}
н/о н/о +17.0 +9.9 63 +17 +17 1014.9 962.6
21 14.07 СЗ 3
{12}
н/о н/о +14.9 +11.9 82 +14 +14 1016.1 963.3 2
22 14.07 ЮЗ 2
{5}
н/о н/о +13.7 +13.1 96 +13 +13 1016.3 963.3 6
23 14.07 СЗ 2
{4}
н/о н/о +13.8 +13.3 97 +13 +13 1015.9 962.9 2
00 15.07 С 3
{12}
н/о н/о +13.9 +13.3 96 +13 +13 1015.2 962.3 0.6
01 15.07 С 3
{5}
н/о н/о +13.8 +12.9 94 +13 +13 1014.7 961.8 0.3
02 15.07
{5}
н/о н/о +13.8 +12.9 94 1014.4 961.5
03 15.07 С 3
{6}
н/о н/о +13.6 +12.1 91 +12 +12 1014.5 961.6
04 15.07 С 3
{6}
н/о н/о +13.4 +11.8 90 +12 +12 1014.3 961.4
05 15.07 СЗ 2
{6}
н/о н/о +13.6 +11.9 89 +13 +13 1014.7 961.8
06 15.07 С 3
{6}
н/о н/о +13.8 +11.7 87 +13 +13 1015.0 962.1 +13.4
07 15.07 С 3
{5}
н/о н/о +13.8 +11.7 87 +13 +13 1015.3 962.4
08 15.07 СЗ 2
{5}
н/о н/о +14.5 +12.1 86 +14 +14 1015.8 963.0
09 15.07 С 3
{6}
н/о н/о +15.2 +12.4 83 +15 +15 1015.7 963.0
10 15.07 С 2
{6}
н/о н/о +17.5 +12.9 74 +18 +18 1015.0 962.8
11 15.07 С 3
{7}
н/о н/о +18.3 +12.8 70 +19 +19 1015.1 963.0
12 15.07 С 3
{7}
н/о н/о +19.5 +12.9 66 +21 +21 комфорт 1014.5 962.7
13 15.07 СВ 3
{9}
н/о н/о +20.4 +12.0 59 +23 +23 комфорт 1014.2 962.5
14 15.07 СВ 3
{7}
н/о н/о +20.7 +12.1 58 +23 +23 комфорт 1014.3 962.7
15 15.07 СВ 3
{9}
н/о н/о +22.1 +12.1 53 +24 +24 комфорт 1013.7 962.4
16 15.07 СЗ 2
{6}
н/о н/о +21.8 +11.9 53 +24 +24 комфорт 1013.7 962.3
17 15.07 СЗ 2
{4}
н/о н/о +21.7 +12.0 54 +24 +24 комфорт 1013.8 962.4
18 15.07 С 1
{9}
н/о н/о +20.8 +12.8 60 +24 +24 комфорт 1014.2 962.6 +22.7
19 15.07 С 3
{6}
н/о н/о +20.2 +12.4 61 +22 +22 комфорт 1014.8 963.1
20 15.07 С 1
{5}
н/о н/о +17.9 +12.5 71 +19 +19 1015.9 963.7
21 15.07 СЗ 1
{6}
н/о н/о +15.9 +13.8 87 +17 +17 1016.6 964.0
22 15.07 С 1
{2}
н/о н/о +15.5 +14.0 91 +16 +16 1017.1 964.4
23 15.07 С 1
{2}
н/о н/о +15.7 +13.2 85 +16 +16 1017.3 964.6
00 16.07 СВ 1
{6}
н/о н/о +13.3 +12.6 96 +13 +13 1017.6 964.5
01 16.07 С 1
{3}
н/о н/о +14.0 +12.6 91 +14 +14 1017.7 964.7
02 16.07 С 2
{3}
н/о н/о +14.2 +11.9 86 +14 +14 1017.8 964.8
03 16.07 С 1
{3}
н/о н/о +12.8 +11.1 89 +13 +13 1018.2 964.9
04 16.07 С 1
{2}
н/о н/о +11.3 +10.8 97 +11 +11 1018.4 964.8
05 16.07 ЮВ 1
{2}
н/о н/о +12.0 +11.8 99 +13 +13 1018.4 965.0
06 16.07 С 2
{3}
н/о н/о +15.6 +12.5 82 +15 +15 1017.9 965.2 +11.0
07 16.07 СЗ 2
{4}
н/о н/о +16.9 +12.3 74 +17 +17 1017.7 965.2
08 16.07 СЗ 2
{3}
н/о н/о +18.4 +12.8 70 +20 +20 1017.3 965.1
09 16.07 СЗ 2
{4}
н/о н/о +19.8 +13.4 67 +22 +22 комфорт 1016.8 964.9
10 16.07 СЗ 2
{4}
н/о н/о +21.1 +13.2 61 +23 +23 комфорт 1016.4 964.8
11 16.07 СЗ 3
{5}
н/о н/о +22.2 +13.2 57 +25 +25 комфорт 1016.1 964.7
12 16.07 СЗ 2
{5}
н/о н/о +24.0 +9.8 41 +25 +25 комфорт 1015.2 964.1
13 16.07 СЗ 2
{3}
н/о н/о +24.7 +10.4 41 +26 +26 жарко 1014.6 963.7
14 16.07 СЗ 2
{4}
н/о н/о +25.3 +8.6 35 +26 +26 жарко 1014.1 963.3
15 16.07 СЗ 2
{4}
н/о н/о +25.5 +7.8 32 +26 +26 жарко 1013.9 963.2
16 16.07 СЗ 2
{4}
н/о н/о +25.9 +8.3 33 +26 +26 жарко 1013.5 962.9
17 16.07 СЗ 2
{4}
н/о н/о +25.5 +9.4 36 +26 +26 жарко 1013.4 962.7
18 16.07 СЗ 2
{4}
н/о н/о +24.1 +11.2 44 +25 +25 комфорт 1013.9 962.9 +25.9
19 16.07 С 1
{3}
н/о н/о +19.4 +11.6 61 +22 +22 комфорт 1015.0 963.1
20 16.07 ЮВ 1
{2}
н/о н/о +15.9 +12.6 81 +17 +17 1016.0 963.4
21 16.07 В 1
{3}
н/о н/о +14.0 +12.1 88 +15 +15 1016.4 963.5
22 16.07 Ю 1
{2}
н/о н/о +12.4 +11.4 94 +12 +12 1016.9 963.6
23 16.07 Ю 1
{1}
н/о н/о +12.2 +10.7 91 +13 +13 1017.0 963.7
00 17.07 Ю 1
{3}
н/о н/о +11.1 +10.4 95 +12 +12 1017.2 963.7
01 17.07 СВ 1
{1}
н/о н/о +11.1 +10.6 97 +12 +12 1017.0 963.5
02 17.07 В 1
{2}
н/о н/о +10.7 +10.6 99 +11 +11 1016.8 963.2
03 17.07 СВ 1
{2}
н/о н/о +10.6 +10.5 99 +11 +11 1016.7 963.1
04 17.07 Ю 1
{2}
н/о н/о +9.6 +9.5 99 +10 +10 1016.9 963.1
05 17.07 В 1
{2}
н/о н/о +11.1 +11.0 99 +12 +12 1016.2 962.7
06 17.07 СВ 1
{2}
н/о н/о +15.9 +13.2 84 +17 +17 1015.1 962.6 +9.6
07 17.07 С 1
{2}
н/о н/о +18.2 +12.8 71 +20 +20 1014.6 962.5
08 17.07 ЮВ 1
{2}
н/о н/о +20.8 +12.8 60 +25 +25 комфорт 1013.9 962.3
09 17.07 СЗ 2
{3}
н/о н/о +21.7 +13.1 58 +24 +24 комфорт 1013.7 962.3
10 17.07 С 2
{4}
н/о н/о +23.7 +12.3 49 +26 +26 жарко 1013.1 962.1
11 17.07 С 3
{5}
н/о н/о +25.3 +10.3 39 +26 +26 жарко 1012.4 961.7
12 17.07 С 2
{5}
н/о н/о +26.3 +10.6 37 +27 +27 жарко 1011.9 961.4
13 17.07 С 4
{6}
н/о н/о +25.8 +10.7 39 +27 +27 жарко 1011.5 960.9
14 17.07 С 3
{6}
н/о н/о +26.5 +11.3 39 +28 +28 жарко 1011.1 960.7
15 17.07 С 3
{6}
н/о н/о +26.7 +10.9 37 +28 +28 жарко 1010.8 960.4
16 17.07 С 4
{6}
н/о н/о +26.4 +11.8 40 +28 +28 жарко 1010.3 959.9
17 17.07 С 2
{6}
н/о н/о +26.3 +11.4 39 +27 +27 жарко 1010.2 959.8
18 17.07 СЗ 2
{6}
н/о н/о +24.6 +12.4 47 +26 +26 жарко 1010.6 959.9 +27.0
19 17.07 штиль 0
{2}
н/о н/о +20.1 +12.8 63 +22 +22 комфорт 1011.7 960.1
20 17.07 Ю 1
{2}
н/о н/о +16.3 +12.8 80 +18 +18 1012.9 960.6
21 17.07 ЮВ 1
{2}
н/о н/о +14.3 +11.8 85 +15 +15 1013.5 960.8
22 17.07 штиль 0
{1}
н/о н/о +13.5 +11.6 88 +13 +13 1013.9 961.0
23 17.07 ЮВ 1
{2}
н/о н/о +12.2 +10.5 89 +13 +13 1014.2 961.0
00 18.07 Ю 1
{2}
н/о н/о +12.4 +11.0 91 +12 +12 1014.1 961.0
01 18.07 ЮВ 1
{2}
н/о н/о +13.1 +11.0 87 +14 +14 1014.0 961.0
02 18.07 В 1
{1}
н/о н/о +12.5 +11.1 91 +13 +13 1014.0 960.9
03 18.07 Ю 1
{2}
н/о н/о +11.9 +11.1 95 +12 +12 1014.2 961.0
04 18.07 Ю 1
{1}
н/о н/о +12.2 +11.1 93 +13 +13 1014.2 961.0
05 18.07 Ю 1
{2}
н/о н/о +12.8 +12.1 96 +14 +14 1014.3 961.2
06 18.07 ЮВ 1
{2}
н/о н/о +15.5 +12.6 83 +16 +16 1014.0 961.5 +11.7
07 18.07 ЮВ 2
{4}
н/о н/о +19.1 +12.6 66 +21 +21 комфорт 1013.5 961.6
08 18.07 В 1
{3}
н/о н/о +22.4 +10.2 46 +24 +24 комфорт 1012.9 961.7
09 18.07 С 2
{5}
н/о н/о +23.8 +9.5 40 +25 +25 комфорт 1012.7 961.7
10 18.07 С 3
{6}
н/о н/о +24.9 +9.1 37 +26 +26 жарко 1012.6 961.8
11 18.07 С 3
{7}
н/о н/о +25.3 +9.0 36 +26 +26 жарко 1012.4 961.7
12 18.07 С 3
{7}
н/о н/о +26.3 +8.9 33 +27 +27 жарко 1011.9 961.4
13 18.07 СЗ 1
{6}
н/о н/о +26.4 +8.0 31 +26 +26 жарко 1011.7 961.2
14 18.07 СЗ 1
{4}
н/о н/о +25.7 +9.3 35 +26 +26 жарко 1011.7 961.1
15 18.07 СЗ 2
{6}
н/о н/о +26.5 +8.4 32 +27 +27 жарко 1011.1 960.7
16 18.07 С 2
{4}
н/о н/о +26.7 +9.2 33 +27 +27 жарко 1011.1 960.7
17 18.07 СЗ 2
{4}
н/о н/о +25.6 +9.5 36 +26 +26 жарко 1011.4 960.8
18 18.07 штиль 0
{6}
н/о н/о +23.7 +14.0 55 +26 +26 жарко 1011.9 961.0 +26.7
19 18.07 ЮЗ 1
{2}
н/о н/о +20.3 +14.9 71 +24 +24 комфорт 1013.1 961.5
20 18.07 Ю 1
{2}
н/о н/о +17.6 +14.8 84 +19 +19 1014.4 962.2
21 18.07 ЮЗ 1
{2}
н/о н/о +16.9 +14.1 84 +18 +18 1015.0 962.7
22 18.07 В 1
{2}
н/о н/о +16.5 +13.6 83 +18 +18 1015.2 962.8
23 18.07 Ю 2
{2}
н/о н/о +16.4 +14.1 86 +17 +17 1015.6 963.1
00 19.07 ЮВ 1
{2}
н/о н/о +16.5 +14.3 87 +17 +17 1015.7 963.3
01 19.07 ЮВ 2
{2}
н/о н/о +16.6 +14.3 86 +17 +17 1015.7 963.3
02 19.07 ЮВ 2
{2}
н/о н/о +15.3 +13.8 91 +15 +15 1016.1 963.4
03 19.07 Ю 1
{2}
н/о н/о +15.3 +13.9 91 +16 +16 1016.3 963.6
04 19.07 В 1
{2}
н/о н/о +15.8 +13.9 88 +17 +17 1016.3 963.7
05 19.07 Ю 1
{2}
н/о н/о +16.3 +14.3 88 +18 +18 1016.3 963.8
06 19.07 ЮВ 1
{2}
н/о н/о +17.9 +14.5 80 +20 +20 1016.4 964.2 +15.3
07 19.07 В 1
{2}
н/о н/о +21.4 +12.2 56 +24 +24 комфорт 1016.0 964.4
08 19.07 С 1
{5}
н/о н/о +22.4 +12.3 53 +25 +25 комфорт 1016.0 964.6
09 19.07 СЗ 2
{5}
н/о н/о +23.3 +12.6 51 +26 +26 жарко 1015.9 964.7
10 19.07 С 2
{5}
н/о н/о +24.4 +12.3 47 +26 +26 жарко 1015.4 964.4
11 19.07 С 3
{4}
н/о н/о +25.4 +12.8 46 +27 +27 жарко 1014.9 964.1
12 19.07 СЗ 2
{5}
н/о н/о +26.5 +13.0 43 +28 +28 жарко 1014.3 963.7
13 19.07 С 3
{7}
н/о н/о +27.2 +11.6 38 +28 +28 жарко 1013.7 963.3
14 19.07 СЗ 3
{8}
н/о н/о +27.6 +9.5 32 +28 +28 жарко 1013.3 963.0
15 19.07 СЗ 3
{8}
н/о н/о +27.4 +11.3 37 +28 +28 жарко 1013.2 962.8
16 19.07 С 3
{6}
н/о н/о +27.2 +12.7 41 +29 +29 жарко 1012.9 962.5
17 19.07 СЗ 3
{5}
н/о н/о +26.6 +13.7 45 +29 +29 жарко 1012.9 962.4
18 19.07 С 2
{8}
н/о н/о +25.6 +14.0 49 +28 +28 жарко 1013.2 962.5 +28.2
19 19.07 СЗ 2
{5}
н/о н/о +23.8 +14.3 55 +26 +26 жарко 1013.6 962.6
20 19.07 С 1
{2}
н/о н/о +19.0 +14.9 77 +22 +22 комфорт 1015.2 963.2
21 19.07 З 1
{5}
н/о н/о +17.0 +15.0 88 +19 +19 1015.8 963.4
22 19.07 ЮВ 1
{1}
н/о н/о +15.8 +14.4 91 +17 +17 1016.3 963.7
23 19.07 ЮВ 1
{2}
н/о н/о +14.7 +13.5 93 +15 +15 1016.4 963.6
00 20.07 Ю 1
{5}
н/о н/о +14.3 +13.6 96 +15 +15 1016.1 963.2

 

Местоположение метеостанции Мозен (Швейцария): широта 47.23 долгота 8.23 высота над уровнем моря 453 м.

В архиве по умолчанию представлена погода в Мозене за последнюю неделю. Архивные данные за месяц целиком и за предыдущие месяцы, начиная с января 2011 года, Вы можете получить, выбрав интересующий диапазон дат из раскрывающегося списка и нажав кнопку "Ввод!".


*Определитесь, кто Вы:
робот инопланетянин человек

Внимание! Время в таблицах - всемирное. Для получения местного времени необходимо прибавить поправку, которая равна 1 ч.

Смотрите также архив погоды в соседних городах и на ближайших метеорологических станциях:

Погода в Беромюнстере (Швейцария) (6 км)
Погода в Метлене (Швейцария) (14 км)
Погода в Эгольцвиле (Швейцария) (18 км)
Погода в Чаме (Швейцария) (19 км)
Погода в Букс-Зуре (Швейцария) (20 км)
Погода в Люцерне (Швейцария) (23 км)
Погода в Госгене (Швейцария) (24 км)
Погода в Бругг-Вилдегге (Швейцария) (27 км)
Погода в Шомоне (Швейцария) (28 км)
Погода на Пилатусе (Швейцария) (28 км)

Пояснения к столбцам:

Ветер - указаны скорость ветра в м/с - средняя за 10 мин, порывы в срок и между сроками (в фигурных скобках) и направление, откуда дует ветер: С - северный, СВ - северо-восточный, В - восточный, ЮВ - юго-восточный, Ю - южный, ЮЗ - юго-западный, З - западный, СЗ - северо-западный.
Видимость - горизонтальная дальность видимости в метрах или километрах. При видимости от 1 до 10 км при отсутствии осадков обычно наблюдается дымка, при ухудшении видимости до 1 км и менее - туман. В сухую погоду видимость может ухудшаться дымом, пылью или мглою.
Явления - указаны атмосферные явления, наблюдавшиеся в срок или в последний час перед сроком; фигурными скобками обозначены явления, наблюдавшиеся между сроками (за 1-3 часа до срока); квадратными скобками обозначены град или гололедные отложения с указанием их диаметра в мм.
Облачность - указаны через наклонную черту общая и нижняя облачность в баллах и высота нижней границы облаков в метрах; квадратными скобками обозначены формы облаков: Ci - перистые, Cs - перисто-слоистые, Cc - перисто-кучевые, Ac - высококучевые, As - высокослоистые, Sc - слоисто-кучевые, Ns - слоисто-дождевые, Cu - кучевые, Cb - кучево-дождевые. Подробнее классификацию облаков см. в Атласе облаков (PDF).
T - Температура воздуха - температура, измеренная на высоте 2 м над землей.
Td - Температура точки росы - температура, при понижении до которой содержащийся в воздухе водяной пар достигнет насыщения.
f - Относительная влажность воздуха - влажноcть воздуха, измеренная на высоте 2 м над землей.
Te - Эффективная температура - температура, которую ощущает одетый по сезону человек в тени. Характеристика душности погоды. При расчете учитывается влияние влажности воздуха и скорости ветра на теплоощущения человека.
Tes - Эффективная температура на солнце - температура, которую ощущает человек, с поправкой на солнечный нагрев. Характеристика знойности погоды. Зависит от высоты солнца над горизонтом, облачности и скорости ветра. Ночью, в пасмурную погоду, а также при ветре 12 м/с и более поправка равна нулю.
P - Атмосферное давление - приведенное к уровню моря атмосферное давление.
Po - Атмосферное давление - измеренное на уровне метеостанции атмосферное давление.
Tmin - Минимальная температура - минимум температуры воздуха на высоте 2 м над землей.
Tmax - Максимальная температура - максимум температуры воздуха на высоте 2 м над землей.
R - Количество осадков - Количество выпавших осадков за период времени, мм. При наведении курсора мыши на число - период времени, за который выпало указанное количество осадков.
R24 - Количество осадков - Количество выпавших осадков за 24 часа, мм.
S - Снежный покров - Высота снежного покрова, см. При наведении курсора мыши на число - состояние снежного покрова и степень покрытия местности в баллах.